Time,TemperatureF,DewpointF,PressureIn,WindDirection,WindDirectionDegrees,WindSpeedMPH,WindSpeedGustMPH,Humidity,HourlyPrecipIn,Conditions,Clouds,dailyrainin,SolarRadiationWatts/m^2,SoftwareType,DateUTC
2013-07-11 00:02:00,77.0,71.0,29.82,SSE,165,0.0,0.0,81,0.00,,,0.12,0.000000,,2013-07-11 04:02:00,
2013-07-11 00:12:00,77.0,71.0,29.81,SSE,165,0.0,0.0,81,0.00,,,0.12,0.000000,,2013-07-11 04:12:00,
2013-07-11 00:22:00,77.0,71.0,29.81,SSE,165,0.0,0.0,81,0.00,,,0.12,0.000000,,2013-07-11 04:22:00,
2013-07-11 00:32:00,77.0,71.0,29.81,SSE,165,0.0,0.0,82,0.00,,,0.12,0.000000,,2013-07-11 04:32:00,
2013-07-11 00:42:00,77.0,71.0,29.80,SSE,165,0.0,0.0,83,0.00,,,0.12,0.000000,,2013-07-11 04:42:00,
2013-07-11 01:02:00,76.0,71.0,29.80,SSE,165,0.0,0.0,84,0.00,,,0.12,0.000000,,2013-07-11 05:02:00,
2013-07-11 01:12:00,76.0,71.0,29.80,SSE,165,0.0,0.0,84,0.00,,,0.12,0.000000,,2013-07-11 05:12:00,
2013-07-11 01:22:00,76.0,71.0,29.80,SSE,165,0.0,0.0,84,0.00,,,0.12,0.000000,,2013-07-11 05:22:00,
2013-07-11 01:32:00,76.0,71.0,29.80,SSE,165,0.0,0.0,84,0.00,,,0.12,0.000000,,2013-07-11 05:32:00,
2013-07-11 01:43:00,76.0,71.0,29.80,SSE,165,0.0,0.0,85,0.00,,,0.12,0.000000,,2013-07-11 05:43:00,
2013-07-11 02:01:00,76.0,72.0,29.80,SSE,165,0.0,0.0,86,0.00,,,0.12,0.000000,,2013-07-11 06:01:00,
2013-07-11 02:12:00,76.0,72.0,29.80,SW,219,0.0,3.0,86,0.00,,,0.12,0.000000,,2013-07-11 06:12:00,
2013-07-11 02:32:00,76.0,72.0,29.80,WNW,294,0.0,0.0,86,0.00,,,0.12,0.000000,,2013-07-11 06:32:00,
2013-07-11 02:43:00,76.0,72.0,29.80,WNW,294,0.0,0.0,86,0.00,,,0.12,0.000000,,2013-07-11 06:43:00,
2013-07-11 02:52:00,76.0,72.0,29.80,WNW,294,0.0,0.0,86,0.00,,,0.12,0.000000,,2013-07-11 06:52:00,
2013-07-11 03:02:00,76.0,72.0,29.80,SW,222,0.0,0.0,87,0.00,,,0.12,0.000000,,2013-07-11 07:02:00,
2013-07-11 03:12:00,76.0,72.0,29.80,SW,222,0.0,0.0,87,0.00,,,0.12,0.000000,,2013-07-11 07:12:00,
2013-07-11 03:22:00,76.0,72.0,29.80,SW,222,0.0,0.0,87,0.00,,,0.12,0.000000,,2013-07-11 07:22:00,
2013-07-11 03:32:00,76.0,72.0,29.80,SW,222,0.0,0.0,87,0.00,,,0.12,0.000000,,2013-07-11 07:32:00,
2013-07-11 03:45:00,76.0,72.0,29.80,SW,222,0.0,0.0,88,0.00,,,0.12,0.000000,,2013-07-11 07:45:00,
2013-07-11 04:02:00,76.0,72.0,29.80,WSW,242,0.0,2.0,88,0.00,,,0.12,0.000000,,2013-07-11 08:02:00,
2013-07-11 04:12:00,76.0,72.0,29.80,WSW,243,0.0,0.0,88,0.00,,,0.12,0.000000,,2013-07-11 08:12:00,
2013-07-11 04:34:00,76.0,72.0,29.80,WSW,243,0.0,0.0,88,0.00,,,0.12,0.000000,,2013-07-11 08:34:00,
2013-07-11 04:43:00,76.0,72.0,29.80,WSW,243,0.0,0.0,88,0.00,,,0.12,0.000000,,2013-07-11 08:43:00,
2013-07-11 05:03:00,76.0,72.0,29.80,WSW,243,0.0,0.0,88,0.00,,,0.12,0.000000,,2013-07-11 09:03:00,
2013-07-11 05:12:00,76.0,73.0,29.80,WSW,243,0.0,0.0,89,0.00,,,0.12,0.000000,,2013-07-11 09:12:00,
2013-07-11 05:33:00,76.0,73.0,29.80,SSW,200,0.0,0.0,89,0.00,,,0.12,0.000000,,2013-07-11 09:33:00,
2013-07-11 05:43:00,76.0,73.0,29.80,SSE,165,0.0,1.0,89,0.00,,,0.12,0.000000,,2013-07-11 09:43:00,
2013-07-11 06:01:00,76.0,73.0,29.80,South,191,0.0,1.0,89,0.00,,,0.12,0.000000,,2013-07-11 10:01:00,
2013-07-11 06:12:00,76.0,73.0,29.80,South,191,0.0,1.0,89,0.00,,,0.12,0.000000,,2013-07-11 10:12:00,
2013-07-11 06:43:00,76.0,73.0,29.80,SSW,211,1.0,4.0,89,0.00,,,0.12,7.000000,,2013-07-11 10:43:00,
2013-07-11 06:52:00,76.0,73.0,29.80,SSW,211,1.0,4.0,89,0.00,,,0.12,7.000000,,2013-07-11 10:52:00,
2013-07-11 07:02:00,75.0,72.0,29.82,SW,218,0.0,1.0,89,0.00,,,0.12,7.000000,,2013-07-11 11:02:00,
2013-07-11 07:12:00,75.0,72.0,29.83,SW,219,0.0,0.0,89,0.00,,,0.12,5.000000,,2013-07-11 11:12:00,
2013-07-11 07:32:00,75.0,72.0,29.83,SW,219,0.0,0.0,89,0.00,,,0.12,23.000000,,2013-07-11 11:32:00,
2013-07-11 07:43:00,75.0,72.0,29.83,SW,219,0.0,0.0,89,0.00,,,0.12,84.000000,,2013-07-11 11:43:00,
2013-07-11 07:53:00,75.0,72.0,29.83,SW,219,0.0,0.0,89,0.00,,,0.12,84.000000,,2013-07-11 11:53:00,
2013-07-11 08:01:00,75.0,72.0,29.84,SW,219,0.0,0.0,89,0.00,,,0.12,67.000000,,2013-07-11 12:01:00,
2013-07-11 08:12:00,75.0,72.0,29.84,SW,219,0.0,0.0,89,0.00,,,0.12,67.000000,,2013-07-11 12:12:00,
2013-07-11 08:33:00,75.0,72.0,29.83,SW,219,0.0,0.0,89,0.00,,,0.12,35.000000,,2013-07-11 12:33:00,
2013-07-11 08:43:00,75.0,71.0,29.84,SW,219,0.0,0.0,88,0.00,,,0.12,46.000000,,2013-07-11 12:43:00,
2013-07-11 09:02:00,75.0,71.0,29.84,SW,219,0.0,0.0,87,0.00,,,0.12,42.000000,,2013-07-11 13:02:00,
2013-07-11 09:13:00,75.0,71.0,29.84,SW,219,0.0,0.0,87,0.00,,,0.12,42.000000,,2013-07-11 13:13:00,
2013-07-11 09:23:00,75.0,71.0,29.84,SW,219,0.0,0.0,86,0.00,,,0.12,37.000000,,2013-07-11 13:23:00,
2013-07-11 09:34:00,75.0,70.0,29.84,SW,219,0.0,0.0,85,0.00,,,0.12,35.000000,,2013-07-11 13:34:00,
2013-07-11 10:05:00,75.0,69.0,29.84,SW,219,0.0,0.0,83,0.00,,,0.12,19.000000,,2013-07-11 14:05:00,
2013-07-11 10:15:00,75.0,69.0,29.85,SW,218,0.0,0.0,83,0.00,,,0.12,23.000000,,2013-07-11 14:15:00,
2013-07-11 10:35:00,74.0,69.0,29.85,SW,219,0.0,0.0,84,0.00,,,0.12,46.000000,,2013-07-11 14:35:00,
2013-07-11 10:54:00,74.0,69.0,29.86,SW,219,0.0,0.0,85,0.00,,,0.12,72.000000,,2013-07-11 14:54:00,
2013-07-11 11:06:00,74.0,70.0,29.86,SW,219,0.0,0.0,86,0.00,,,0.12,114.000000,,2013-07-11 15:06:00,
2013-07-11 11:24:00,74.0,70.0,29.86,SW,218,0.0,0.0,86,0.00,,,0.12,83.000000,,2013-07-11 15:24:00,
2013-07-11 12:15:00,75.0,71.0,29.86,SE,124,0.0,0.0,86,0.00,,,0.12,142.000000,,2013-07-11 16:15:00,
2013-07-11 12:35:00,76.0,71.0,29.85,NE,46,0.0,2.0,84,0.00,,,0.12,105.000000,,2013-07-11 16:35:00,
2013-07-11 12:47:00,75.0,69.0,29.86,NE,46,0.0,1.0,81,0.00,,,0.12,107.000000,,2013-07-11 16:47:00,
2013-07-11 12:54:00,75.0,69.0,29.86,NE,46,0.0,1.0,81,0.00,,,0.12,107.000000,,2013-07-11 16:54:00,
2013-07-11 13:03:00,76.0,70.0,29.86,East,87,0.0,0.0,83,0.00,,,0.12,98.000000,,2013-07-11 17:03:00,
2013-07-11 13:16:00,76.0,70.0,29.86,East,87,0.0,0.0,83,0.00,,,0.12,98.000000,,2013-07-11 17:16:00,
2013-07-11 13:47:00,77.0,71.0,29.86,South,186,0.0,1.0,81,0.00,,,0.12,113.000000,,2013-07-11 17:47:00,
2013-07-11 13:53:00,77.0,71.0,29.86,South,186,0.0,1.0,81,0.00,,,0.12,113.000000,,2013-07-11 17:53:00,
2013-07-11 14:05:00,77.0,69.0,29.86,South,186,0.0,0.0,77,0.00,,,0.12,149.000000,,2013-07-11 18:05:00,
2013-07-11 14:24:00,78.0,71.0,29.85,South,186,0.0,0.0,78,0.00,,,0.02,146.000000,,2013-07-11 18:24:00,
2013-07-11 14:35:00,78.0,70.0,29.85,South,186,0.0,0.0,76,0.00,,,0.01,127.000000,,2013-07-11 18:35:00,
2013-07-11 14:46:00,78.0,69.0,29.85,South,181,0.0,0.0,75,0.00,,,0.00,146.000000,,2013-07-11 18:46:00,
2013-07-11 14:54:00,78.0,69.0,29.85,South,181,0.0,0.0,75,0.00,,,0.00,146.000000,,2013-07-11 18:54:00,
2013-07-11 15:05:00,79.0,70.0,29.85,ENE,70,0.0,3.0,75,0.00,,,0.00,100.000000,,2013-07-11 19:05:00,
2013-07-11 15:13:00,79.0,71.0,29.85,ENE,77,0.0,3.0,76,0.00,,,0.00,123.000000,,2013-07-11 19:13:00,
2013-07-11 15:39:00,79.0,69.0,29.84,WSW,242,0.0,1.0,72,0.00,,,0.00,160.000000,,2013-07-11 19:39:00,
2013-07-11 15:45:00,79.0,69.0,29.85,WSW,242,0.0,0.0,71,0.00,,,0.00,167.000000,,2013-07-11 19:45:00,
2013-07-11 15:56:00,79.0,69.0,29.85,WSW,242,0.0,0.0,71,0.00,,,0.00,167.000000,,2013-07-11 19:56:00,
2013-07-11 16:07:00,79.0,69.0,29.84,North,360,0.0,0.0,71,0.00,,,0.00,202.000000,,2013-07-11 20:07:00,
2013-07-11 16:13:00,79.0,69.0,29.84,North,360,0.0,0.0,71,0.00,,,0.00,202.000000,,2013-07-11 20:13:00,
2013-07-11 16:38:00,80.0,70.0,29.84,North,360,0.0,0.0,71,0.00,,,0.00,292.000000,,2013-07-11 20:38:00,
2013-07-11 16:47:00,79.0,70.0,29.84,NNE,15,0.0,0.0,73,0.00,,,0.00,100.000000,,2013-07-11 20:47:00,
2013-07-11 16:54:00,79.0,70.0,29.84,NNE,15,0.0,0.0,73,0.00,,,0.00,100.000000,,2013-07-11 20:54:00,
2013-07-11 17:15:00,79.0,69.0,29.84,NNE,17,0.0,0.0,72,0.00,,,0.00,70.000000,,2013-07-11 21:15:00,
2013-07-11 17:25:00,79.0,69.0,29.84,SE,138,0.0,0.0,71,0.00,,,0.00,76.000000,,2013-07-11 21:25:00,
2013-07-11 17:45:00,79.0,69.0,29.84,SSE,153,0.0,1.0,71,0.00,,,0.00,58.000000,,2013-07-11 21:45:00,
2013-07-11 17:56:00,79.0,69.0,29.84,SSE,153,0.0,1.0,71,0.00,,,0.00,58.000000,,2013-07-11 21:56:00,
2013-07-11 18:35:00,79.0,70.0,29.85,SSE,153,0.0,0.0,74,0.00,,,0.00,33.000000,,2013-07-11 22:35:00,
2013-07-11 18:47:00,79.0,70.0,29.85,SSE,153,0.0,0.0,74,0.00,,,0.00,33.000000,,2013-07-11 22:47:00,
2013-07-11 19:06:00,79.0,70.0,29.86,SSW,200,0.0,0.0,75,0.00,,,0.00,25.000000,,2013-07-11 23:06:00,
2013-07-11 19:14:00,79.0,70.0,29.86,SSW,200,0.0,0.0,74,0.00,,,0.00,23.000000,,2013-07-11 23:14:00,
2013-07-11 19:35:00,78.0,69.0,29.88,SSW,200,0.0,0.0,73,0.00,,,0.00,14.000000,,2013-07-11 23:35:00,
2013-07-11 19:47:00,77.0,68.0,29.88,SSW,200,0.0,0.0,74,0.00,,,0.00,11.000000,,2013-07-11 23:47:00,
2013-07-11 20:05:00,77.0,68.0,29.88,North,10,0.0,2.0,74,0.00,,,0.00,5.000000,,2013-07-12 00:05:00,
2013-07-11 20:15:00,76.0,67.0,29.89,ENE,74,0.0,0.0,73,0.00,,,0.00,7.000000,,2013-07-12 00:15:00,
2013-07-11 20:26:00,76.0,67.0,29.89,ENE,74,0.0,0.0,73,0.00,,,0.00,7.000000,,2013-07-12 00:26:00,
2013-07-11 20:37:00,75.0,66.0,29.89,ENE,74,0.0,0.0,73,0.00,,,0.00,0.000000,,2013-07-12 00:37:00,
2013-07-11 20:45:00,75.0,66.0,29.89,ENE,74,0.0,0.0,73,0.00,,,0.00,0.000000,,2013-07-12 00:45:00,
2013-07-11 21:05:00,74.0,64.0,29.89,ENE,74,0.0,0.0,71,0.00,,,0.00,0.000000,,2013-07-12 01:05:00,
2013-07-11 21:13:00,74.0,64.0,29.89,ENE,74,0.0,0.0,71,0.00,,,0.00,0.000000,,2013-07-12 01:13:00,
2013-07-11 21:37:00,74.0,64.0,29.89,ENE,74,0.0,0.0,71,0.00,,,0.00,0.000000,,2013-07-12 01:37:00,
2013-07-11 22:26:00,73.0,64.0,29.91,ENE,74,0.0,0.0,74,0.00,,,0.00,0.000000,,2013-07-12 02:26:00,
2013-07-11 22:45:00,72.0,64.0,29.91,ENE,74,0.0,0.0,75,0.00,,,0.00,0.000000,,2013-07-12 02:45:00,
2013-07-11 23:04:00,71.0,63.0,29.92,ENE,74,0.0,0.0,76,0.00,,,0.00,0.000000,,2013-07-12 03:04:00,
2013-07-11 23:14:00,71.0,63.0,29.92,ENE,74,0.0,0.0,76,0.00,,,0.00,0.000000,,2013-07-12 03:14:00,
2013-07-11 23:25:00,71.0,63.0,29.92,ENE,74,0.0,0.0,76,0.00,,,0.00,0.000000,,2013-07-12 03:25:00,
2013-07-11 23:37:00,70.0,62.0,29.91,ENE,74,0.0,0.0,76,0.00,,,0.00,0.000000,,2013-07-12 03:37:00,
2013-07-11 23:45:00,70.0,62.0,29.91,ENE,74,0.0,0.0,77,0.00,,,0.00,0.000000,,2013-07-12 03:45:00,